Wind_Speed
5 5 7 9 10 11 11 11 12 12 12 13 13 14 15 14 18 20 18 17 19 18 20 22 22 20 19 21 26 23 22 21 21 18 19 15 12 22 19 21 20 21 20 26 34 20 19 22 18 17 14 19 22 22
5 6 7 6 7 8 10 11 11 12 14 13 12 11 11 12 12 16 18 16 15 15 15 18 26 23 24 21 18 16 15 12 20 19 18 11 12 13 22 25 27 27 27 26 26 30 31 23 17 19 25 25 29 25
7 7 7 7 7 8 9 10 11 10 10 10 10 10 11 12 10 10 11 10 8 8 9 11 17 23 25 24 22 17 13 12 15 15 15 16 14 16 19 27 26 27 26 31 30 41 39 37 32 29 25 24 31 34
9 10 9 9 9 8 8 9 9 11 12 11 11 12 11 11 10 9 8 10 11 13 14 14 17 17 18 18 19 22 20 20 19 19 20 22 26 27 29 29 30 30 28 28 33 37 27 39 35 31 26 24 28 32
14 13 12 11 12 11 10 10 11 11 12 13 14 14 13 12 11 11 11 11 10 12 7 14 14 14 18 19 21 23 26 26 24 26 27 29 32 30 33 33 39 37 38 40 44 38 32 37 33 30 33 35 36 38
18 17 16 15 14 15 13 13 13 13 13 14 14 14 12 11 10 10 9 9 8 7 7 8 11 13 12 15 19 20 20 24 28 32 34 36 37 29 29 39 44 38 33 32 38 39 44 45 45 44 43 42 39 39
19 19 16 17 16 15 19 17 16 15 17 16 14 13 11 9 8 6 6 6 3 3 5 5 7 8 8 11 15 18 18 20 22 25 31 32 32 30 37 48 39 37 36 34 30 30 33 30 36 37 38 42 36 36
18 17 18 18 18 18 21 19 17 16 16 14 13 10 9 9 8 5 4 5 6 6 5 3 3 4 7 8 9 11 11 13 17 20 25 29 29 27 36 45 40 35 33 26 26 29 40 36 34 36 33 31 34 32
15 16 16 15 14 22 23 21 20 17 17 15 13 9 10 9 6 4 5 6 7 8 4 5 7 3 8 11 9 10 12 15 17 24 25 20 25 27 31 31 29 24 16 17 16 17 20 25 28 29 30 28 26 21
13 13 12 19 18 17 18 19 15 20 17 19 17 17 12 8 7 6 6 4 5 10 13 11 8 9 5 7 8 9 8 9 8 14 9 15 26 18 14 14 22 28 25 20 21 17 18 19 5 9 21 17 3 4
14 13 11 15 15 17 13 19 23 22 25 24 19 15 9 7 5 5 1 2 3 3 2 1 7 15 10 7 6 5 5 4 5 6 8 6 16 9 10 8 8 6 15 18 13 9 9 11 11 9 9 4 5 3
13 12 13 17 21 20 22 19 19 18 15 14 12 11 12 9 5 4 4 4 4 2 3 3 3 2 8 10 9 5 5 5 6 3 5 5 16 5 9 10 9 6 3 9 9 5 3 12 6 3 1 4 6 8
12 12 12 12 11 14 15 15 16 17 18 17 15 11 7 5 5 5 5 4 4 3 3 4 4 4 2 5 4 4 4 4 8 4 5 6 9 5 9 9 7 4 4 7 11 8 5 8 7 8 9 11 12 10
10 10 11 13 14 14 15 15 17 15 19 16 12 7 6 5 7 7 8 3 9 5 2 1 3 3 2 2 5 4 5 4 4 4 5 6 6 8 8 7 5 4 3 3 5 6 8 11 16 16 13 12 11 8
4 5 2 11 15 18 19 19 18 16 17 8 7 4 7 6 4 3 8 6 5 6 7 6 5 5 4 4 3 4 3 4 5 5 8 5 8 8 6 5 5 4 2 2 3 5 7 9 12 13 14 10 11 9
2 3 4 6 11 23 22 21 19 16 12 7 7 4 4 5 6 9 8 6 8 8 6 6 3 2 6 4 5 6 4 4 4 6 7 7 10 11 9 7 5 5 5 5 6 6 8 9 10 11 11 11 11 9
6 5 4 9 11 19 26 19 21 15 2 5 7 10 10 8 8 6 7 9 9 8 6 5 3 4 3 4 5 5 8 10 10 12 8 8 8 9 7 7 7 6 7 7 7 6 7 11 13 12 11 12 11 9
6 4 7 11 14 17 22 20 16 10 12 12 8 6 8 10 8 7 6 9 8 8 9 11 8 7 4 3 4 7 5 9 15 6 5 6 7 7 7 7 7 7 7 8 8 7 5 8 11 12 11 10 10 9
11 7 9 12 14 16 18 16 16 8 12 11 8 9 8 7 8 9 10 9 9 10 10 11 8 8 9 12 12 12 15 13 4 4 4 7 8 8 8 8 8 8 9 10 10 9 7 5 5 9 10 11 11 9
16 13 9 16 16 16 14 11 16 17 10 8 5 5 10 9 9 7 6 5 11 14 12 14 15 14 14 16 16 6 2 3 1 6 8 8 9 10 9 9 9 8 9 9 10 10 8 7 5 6 10 11 10 9
16 12 14 15 15 15 8 4 8 8 10 15 11 8 8 7 7 7 7 6 7 7 6 5 7 9 10 9 6 6 7 7 9 10 13 14 11 9 8 8 10 10 10 10 11 11 10 7 7 7 8 8 8 9
4 6 11 13 16 15 11 10 4 7 11 6 5 7 9 8 8 10 9 12 14 10 10 10 11 15 13 10 10 11 10 11 12 12 12 10 9 7 7 9 10 10 10 11 11 11 10 9 8 8 8 8 8 9
5 5 4 3 10 8 7 9 12 14 10 9 8 8 8 9 10 9 12 13 13 11 12 13 12 12 12 14 14 13 12 11 12 11 11 11 11 12 11 10 11 12 12 12 12 12 11 10 10 9 9 9 9 10
11 14 12 6 8 7 10 11 10 9 10 11 12 12 11 11 9 9 12 12 12 11 11 10 11 14 15 15 15 15 15 15 16 17 16 16 17 16 16 15 14 15 15 15 14 13 13 11 10 10 11 11 11 11
12 9 7 9 10 12 15 16 14 14 15 15 15 13 10 9 10 13 14 10 12 11 11 11 13 15 13 14 15 14 13 14 14 14 14 13 14 15 15 15 16 15 16 16 16 14 14 13 11 11 12 12 12 12
10 7 7 8 10 12 14 16 17 16 16 17 14 13 12 15 15 9 7 10 12 12 12 11 9 7 8 8 7 6 7 7 8 8 9 10 11 11 13 14 14 15 15 15 15 15 14 14 14 13 13 13 14 14
6 8 9 13 13 12 13 15 16 15 12 13 15 16 15 12 11 13 16 15 15 15 15 14 10 10 11 8 6 7 8 10 12 13 13 13 14 13 13 13 13 13 13 13 13 13 14 14 15 15 15 14 14 14
5 6 13 17 17 16 17 16 16 16 18 19 21 19 11 8 9 13 13 14 14 12 12 11 11 12 14 14 14 15 17 18 17 17 17 17 18 17 16 15 14 12 12 13 13 13 14 15 15 16 15 16 16 15
9 9 10 10 11 12 14 16 16 16 14 13 14 17 17 18 15 16 19 17 13 13 14 15 15 16 16 16 17 20 19 18 15 15 15 16 17 18 18 17 15 13 13 13 13 13 13 14 14 16 16 15 16 15
6 8 7 9 7 8 6 9 13 15 18 18 16 13 11 9 15 16 15 15 16 17 18 16 14 15 16 16 15 16 16 15 14 13 13 13 14 14 16 16 18 17 16 15 14 14 13 12 12 14 15 16 17 17
6 6 4 11 13 16 14 12 12 15 17 16 14 15 16 14 13 15 14 15 16 14 15 13 12 11 10 10 10 11 13 13 13 14 13 13 13 13 13 14 15 16 17 16 15 14 13 12 11 12 13 14 16 17
9 8 9 12 15 14 13 16 12 13 13 14 13 12 14 16 19 18 17 11 10 11 10 9 9 8 9 10 11 12 12 11 11 11 12 13 14 14 14 14 13 13 14 15 15 15 14 12 12 12 12 12 13 13
5 1 4 11 13 11 9 11 11 10 12 13 13 17 22 24 22 19 21 20 18 16 15 13 10 8 8 8 7 7 8 9 10 11 12 13 13 13 13 13 13 13 13 13 14 16 17 17 16 14 14 14 15 15
Wind_Direction
87 94 109 114 112 115 118 127 116 114 116 121 125 130 140 154 158 169 173 162 164 166 157 150 151 161 177 182 177 192 189 197 200 203 203 204 203 210 222 214 222 226 222 227 234 233 250 266 266 249 271 277 280 275
133 128 117 122 144 140 124 116 126 131 127 128 132 138 139 135 143 164 172 176 175 173 171 176 175 168 178 184 196 210 208 200 207 207 211 203 205 219 234 237 233 242 240 250 245 244 257 264 263 264 293 296 291 289
186 176 163 149 140 139 157 177 177 156 144 145 149 154 149 156 154 154 170 171 167 160 187 190 193 201 201 198 201 210 207 230 227 221 224 213 218 228 230 238 246 242 245 254 257 251 253 251 255 263 267 277 281 284
210 197 191 185 177 166 159 151 148 165 165 171 191 164 159 160 156 160 170 183 187 193 201 201 209 215 220 216 218 228 237 230 230 240 236 235 240 248 248 249 249 243 239 240 249 248 252 251 256 259 249 257 263 269
216 209 202 200 195 189 178 168 157 154 164 172 169 168 167 163 155 159 171 179 188 200 211 222 222 225 227 229 231 226 226 236 239 230 234 241 248 250 260 264 259 255 255 254 254 257 262 259 257 251 252 252 256 264
215 210 204 204 204 203 193 175 170 165 158 154 151 151 148 147 154 162 168 179 192 202 222 224 248 250 247 230 228 231 231 234 238 242 247 252 255 254 261 264 273 269 265 260 261 260 258 262 265 268 265 259 260 269
210 211 210 201 202 200 190 178 176 174 169 164 161 158 160 157 168 170 160 163 192 224 230 226 237 248 239 232 230 232 236 241 245 249 253 260 263 259 261 263 275 269 269 264 257 261 255 250 255 255 258 255 258 261
203 205 204 200 202 192 186 179 174 180 181 178 174 163 169 184 190 185 235 248 249 239 243 232 160 218 214 216 212 219 228 238 245 259 271 273 275 266 260 274 278 279 279 282 272 256 248 256 258 261 259 260 259 265
190 195 197 193 195 174 177 181 183 183 182 186 184 185 205 203 227 271 262 250 249 222 212 213 190 201 217 225 218 223 235 253 264 264 271 274 267 253 284 283 284 286 282 285 291 281 259 252 258 263 255 255 258 266
171 171 176 173 181 176 175 185 193 196 205 184 177 191 207 224 234 251 262 245 231 246 243 240 231 222 227 190 208 227 242 246 256 285 282 263 281 324 330 292 273 271 267 255 263 266 266 268 346 259 243 233 132 91
152 150 153 161 169 178 175 181 178 174 153 165 177 191 194 196 188 174 174 189 225 242 232 285 207 211 214 237 255 246 232 246 253 258 244 255 310 324 328 316 334 310 250 233 240 259 280 340 86 85 84 91 116 3
144 144 146 150 151 162 164 161 159 159 168 168 177 180 169 154 169 174 202 209 223 245 216 122 104 138 214 237 238 237 249 237 245 244 260 264 313 23 337 344 344 337 203 160 159 183 277 313 130 156 184 185 226 269
138 145 152 155 155 149 162 170 164 164 166 167 156 173 164 191 193 200 196 195 190 214 248 212 212 220 232 218 206 205 236 255 292 247 250 278 291 351 345 350 359 352 243 237 235 250 226 226 238 230 245 251 253 268
145 155 168 175 176 179 183 176 174 176 173 174 170 180 196 188 203 200 195 233 213 226 230 183 206 215 213 224 212 223 228 252 247 248 255 270 24 350 337 345 5 16 6 261 254 258 255 245 244 250 260 248 248 250
125 103 133 203 195 187 176 173 167 164 168 158 179 201 204 194 197 186 216 224 221 234 246 270 255 249 249 231 220 225 218 236 237 250 297 17 11 2 3 12 15 9 348 328 280 263 251 238 234 238 243 246 232 234
150 79 35 146 179 187 179 174 166 152 182 207 187 189 194 204 225 234 230 225 249 245 250 281 258 251 219 215 213 210 199 236 275 349 2 335 336 339 347 352 355 351 335 320 303 276 255 244 237 234 230 228 231 238
108 40 100 130 146 172 173 168 179 192 143 193 224 235 248 263 298 263 297 226 239 249 260 261 242 227 227 221 221 221 221 233 282 294 297 307 316 322 330 332 331 333 338 334 323 305 274 246 237 229 230 232 227 235
181 177 168 146 141 144 167 179 187 207 241 248 266 244 242 259 268 250 230 246 246 236 238 240 238 243 250 273 273 262 275 308 304 283 323 328 329 330 329 331 340 346 341 341 339 334 300 251 232 220 221 226 229 235
196 189 182 176 172 174 180 197 203 232 248 262 239 245 249 246 258 258 255 250 238 236 240 251 250 253 262 267 291 279 285 282 236 291 318 327 323 316 318 321 328 337 338 340 340 331 320 291 245 226 227 230 232 236
208 190 201 192 193 191 193 213 221 234 248 255 246 255 264 248 245 237 231 224 233 237 242 247 255 268 280 276 282 302 262 259 270 296 309 312 326 322 316 318 324 324 327 334 336 331 316 293 272 240 235 235 234 235
193 207 200 201 202 196 189 201 221 238 242 250 258 261 265 273 244 246 222 229 234 236 240 283 248 266 264 277 277 307 298 284 286 292 298 307 313 314 316 317 317 319 318 322 327 331 320 297 272 257 250 247 244 239
151 178 179 175 189 197 218 218 227 242 222 228 240 257 267 262 253 248 234 236 256 279 294 286 273 265 288 299 290 289 287 275 278 285 291 298 306 314 312 316 319 317 315 313 313 320 315 303 277 261 255 249 243 235
189 193 222 211 193 202 219 222 233 252 274 271 276 281 286 284 277 268 252 261 282 281 275 278 272 272 271 276 281 279 277 279 280 281 282 286 291 297 299 299 300 302 306 308 311 311 304 299 275 258 252 248 242 238
230 224 227 230 215 220 236 237 239 249 263 265 272 279 280 279 275 255 258 282 279 275 270 274 277 280 284 278 273 276 276 277 279 280 280 282 285 286 286 288 287 287 286 288 291 294 290 285 275 254 249 248 245 241
229 233 220 217 214 226 245 252 254 254 253 257 256 252 251 264 264 267 276 279 273 273 276 275 278 278 268 265 267 273 270 277 285 293 295 295 292 293 291 287 283 281 277 275 278 278 278 275 269 260 250 247 245 245
210 227 218 210 222 231 241 252 261 261 257 247 248 249 247 251 257 252 261 261 262 265 273 276 277 267 246 240 252 254 266 281 295 299 305 305 304 303 300 296 289 284 280 277 274 273 268 267 262 258 256 250 246 246
216 209 215 225 230 244 251 255 251 242 236 228 246 256 256 247 249 249 257 251 247 246 260 264 261 247 244 250 254 271 285 298 299 298 297 297 297 295 295 300 298 297 292 285 280 274 268 262 260 254 251 253 251 247
228 226 220 223 238 233 236 243 248 259 257 253 254 252 242 225 217 228 245 248 250 256 253 246 244 248 254 263 273 283 292 296 295 291 288 286 283 288 293 291 293 296 293 291 289 280 272 264 256 252 250 248 250 251
219 243 246 236 225 229 245 254 262 259 250 244 245 237 233 240 239 239 230 231 245 247 248 249 253 264 272 279 286 298 298 294 290 285 282 279 278 280 280 283 290 289 291 291 287 288 281 274 261 251 248 246 244 245
237 259 242 203 216 228 234 221 222 239 248 250 248 237 250 254 211 217 242 262 247 239 246 247 255 276 290 292 295 295 293 293 293 292 291 290 288 285 279 276 275 279 281 283 287 285 284 280 267 252 249 248 245 246
286 273 272 269 241 227 242 242 240 233 236 252 255 250 249 248 227 214 218 228 221 223 255 269 275 279 279 284 289 293 297 296 294 294 295 296 297 299 299 294 287 281 278 276 277 278 279 275 266 258 253 252 252 254
299 286 281 287 270 261 255 248 248 241 238 239 236 238 238 234 230 238 244 240 232 231 233 238 244 255 269 284 288 290 298 300 301 304 304 304 303 300 298 298 300 295 287 278 272 269 267 267 262 258 256 258 261 262
318 293 287 284 291 290 279 260 245 238 235 241 246 242 225 215 197 203 212 215 213 216 222 224 231 251 277 285 299 319 326 329 332 330 327 324 321 318 314 308 302 298 295 288 280 271 264 260 258 257 255 256 257 258
Height
2880 2880 2882 2884 2886 2887 2889 2891 2892 2894 2897 2901 2904 2908 2911 2916 2922 2925 2929 2934 2941 2945 2949 2954 2957 2962 2968 2972 2973 2979 2983 2985 2989 2993 2995 2997 2996 3003 3006 3009 3011 3013 3015 3015 3018 3021 3018 3013 3017 3021 3018 3016 3015 3013
2883 2884 2885 2887 2889 2891 2893 2894 2897 2900 2902 2906 2910 2913 2915 2918 2920 2925 2930 2935 2940 2945 2952 2956 2959 2964 2967 2968 2974 2976 2978 2979 2985 2989 2991 2992 2993 2997 3000 3002 3006 3006 3008 3011 3012 3008 3008 3010 3011 3012 3010 3010 3007 3006
2884 2885 2887 2889 2891 2894 2896 2898 2901 2904 2907 2910 2914 2916 2918 2921 2925 2929 2932 2935 2939 2944 2950 2955 2960 2965 2968 2968 2967 2970 2972 2978 2983 2985 2986 2986 2988 2991 2994 2995 2997 2998 3001 3001 3002 2996 3000 3000 3001 3004 3006 3003 2999 2998
2882 2885 2887 2889 2892 2894 2897 2899 2902 2905 2908 2912 2915 2918 2921 2925 2928 2931 2934 2937 2942 2946 2950 2953 2955 2959 2961 2962 2966 2970 2972 2974 2977 2979 2980 2981 2983 2987 2988 2989 2989 2990 2990 2989 2987 2987 2989 2990 2992 2994 2993 2993 2991 2990
2880 2883 2886 2889 2892 2895 2898 2900 2903 2906 2910 2913 2916 2920 2923 2927 2930 2933 2936 2939 2942 2948 2948 2950 2953 2956 2958 2960 2963 2967 2970 2971 2974 2975 2974 2975 2978 2982 2980 2981 2975 2978 2979 2981 2977 2981 2982 2980 2982 2983 2982 2983 2983 2983
2877 2880 2884 2887 2890 2894 2897 2901 2904 2908 2912 2915 2918 2921 2925 2928 2931 2934 2937 2940 2942 2944 2947 2949 2951 2951 2953 2956 2959 2961 2965 2966 2967 2969 2969 2970 2973 2976 2971 2963 2959 2965 2968 2970 2967 2970 2971 2970 2971 2972 2972 2973 2974 2975
2873 2877 2881 2885 2888 2892 2896 2900 2905 2909 2913 2916 2920 2923 2926 2929 2931 2935 2938 2940 2941 2943 2945 2946 2946 2948 2950 2952 2954 2957 2959 2961 2963 2963 2961 2963 2964 2967 2961 2949 2948 2954 2956 2958 2958 2958 2956 2957 2956 2958 2959 2961 2962 2963
2871 2875 2879 2883 2886 2891 2895 2900 2904 2909 2913 2917 2921 2923 2926 2929 2932 2934 2936 2937 2939 2941 2943 2944 2945 2947 2948 2949 2951 2954 2955 2957 2957 2956 2955 2954 2955 2956 2945 2935 2941 2944 2945 2945 2943 2944 2945 2948 2949 2949 2950 2951 2952 2954
2870 2873 2878 2881 2885 2886 2893 2899 2903 2908 2913 2917 2921 2924 2926 2929 2932 2934 2935 2936 2938 2942 2941 2941 2943 2946 2946 2948 2950 2952 2953 2953 2953 2949 2949 2950 2945 2940 2933 2934 2934 2936 2936 2937 2936 2936 2937 2938 2939 2938 2939 2943 2945 2944
2871 2874 2878 2881 2885 2890 2894 2899 2902 2907 2912 2917 2921 2925 2927 2929 2931 2933 2933 2935 2936 2936 2937 2938 2941 2943 2945 2945 2948 2950 2949 2949 2947 2945 2945 2940 2935 2934 2928 2926 2927 2928 2929 2931 2931 2933 2934 2931 2930 2929 2931 2937 2938 2939
2874 2877 2879 2882 2886 2890 2894 2898 2902 2908 2911 2916 2921 2924 2927 2928 2930 2932 2933 2934 2935 2935 2935 2935 2936 2939 2942 2944 2946 2947 2946 2946 2944 2943 2941 2937 2933 2930 2928 2926 2923 2922 2922 2923 2926 2929 2928 2929 2930 2931 2933 2934 2936 2940
2877 2880 2883 2886 2888 2892 2896 2899 2903 2907 2912 2917 2921 2924 2927 2928 2930 2932 2932 2934 2934 2934 2934 2935 2936 2938 2940 2941 2943 2944 2943 2943 2940 2939 2938 2932 2930 2928 2927 2925 2923 2921 2921 2922 2925 2928 2928 2927 2929 2931 2933 2935 2939 2941
2881 2883 2886 2888 2891 2894 2897 2900 2904 2909 2913 2918 2921 2924 2926 2929 2929 2930 2930 2932 2932 2933 2934 2935 2937 2938 2938 2939 2940 2941 2940 2940 2939 2937 2934 2931 2928 2928 2927 2926 2924 2922 2922 2923 2925 2926 2927 2928 2931 2932 2935 2936 2937 2937
2883 2885 2888 2890 2892 2895 2899 2903 2907 2910 2914 2918 2920 2923 2924 2925 2926 2927 2929 2930 2932 2933 2933 2935 2936 2936 2936 2937 2937 2937 2938 2938 2936 2934 2931 2928 2929 2928 2926 2925 2924 2923 2923 2923 2923 2924 2925 2926 2928 2930 2932 2932 2934 2934
2886 2887 2888 2888 2891 2895 2899 2903 2906 2910 2914 2917 2920 2921 2922 2923 2925 2926 2927 2929 2931 2931 2932 2933 2933 2934 2935 2935 2935 2935 2935 2934 2932 2931 2929 2929 2929 2929 2927 2926 2924 2923 2923 2923 2923 2923 2924 2924 2925 2927 2929 2929 2931 2932
2887 2888 2889 2889 2890 2894 2898 2903 2907 2911 2915 2916 2918 2919 2920 2922 2923 2924 2925 2927 2927 2929 2930 2931 2931 2932 2932 2933 2932 2932 2933 2932 2930 2929 2929 2928 2928 2927 2926 2925 2924 2924 2923 2922 2922 2921 2922 2922 2923 2924 2926 2927 2928 2929
2889 2891 2891 2891 2892 2894 2900 2905 2908 2910 2912 2914 2916 2918 2919 2920 2922 2923 2923 2925 2926 2927 2928 2929 2930 2930 2931 2930 2929 2929 2929 2929 2929 2929 2928 2927 2926 2926 2925 2924 2923 2923 2922 2921 2920 2919 2919 2920 2921 2922 2923 2924 2925 2926
2891 2893 2894 2895 2897 2899 2903 2906 2909 2911 2911 2913 2915 2916 2917 2918 2919 2920 2922 2923 2924 2925 2927 2928 2928 2928 2928 2927 2927 2927 2926 2927 2927 2926 2925 2925 2924 2924 2923 2923 2922 2921 2920 2919 2918 2917 2917 2917 2918 2919 2920 2921 2922 2923
2891 2893 2894 2897 2899 2902 2905 2908 2909 2910 2911 2912 2913 2914 2915 2916 2917 2918 2919 2920 2922 2923 2924 2925 2925 2925 2926 2926 2926 2924 2924 2924 2924 2924 2924 2923 2923 2922 2921 2920 2919 2918 2917 2916 2915 2914 2914 2914 2914 2915 2916 2917 2919 2920
2890 2892 2894 2896 2899 2902 2905 2907 2908 2909 2909 2910 2911 2912 2913 2915 2916 2916 2917 2918 2919 2920 2921 2921 2923 2924 2923 2923 2923 2921 2919 2920 2921 2921 2921 2921 2920 2919 2918 2917 2917 2916 2915 2914 2913 2912 2911 2911 2911 2912 2913 2914 2915 2916
2891 2892 2893 2895 2898 2901 2903 2904 2905 2906 2907 2908 2909 2910 2911 2912 2913 2914 2915 2916 2917 2917 2919 2919 2920 2920 2919 2918 2919 2918 2919 2919 2918 2918 2917 2917 2917 2916 2915 2914 2914 2913 2912 2911 2910 2909 2908 2908 2909 2909 2910 2910 2911 2912
2891 2892 2893 2894 2896 2900 2902 2903 2903 2904 2905 2906 2907 2908 2908 2909 2910 2911 2913 2912 2913 2915 2915 2916 2916 2915 2915 2916 2916 2916 2916 2915 2915 2914 2914 2913 2913 2913 2913 2912 2911 2910 2910 2909 2908 2907 2906 2905 2905 2906 2906 2907 2908 2909
2891 2893 2893 2895 2897 2898 2900 2900 2901 2902 2903 2904 2905 2906 2906 2907 2908 2909 2908 2909 2910 2910 2910 2910 2910 2911 2912 2912 2912 2912 2912 2912 2911 2911 2911 2910 2910 2910 2910 2909 2908 2908 2907 2906 2905 2904 2903 2902 2902 2903 2903 2904 2905 2906
2890 2892 2893 2894 2895 2896 2897 2898 2899 2901 2901 2902 2903 2903 2904 2904 2905 2905 2905 2906 2905 2905 2906 2907 2907 2907 2907 2907 2907 2907 2907 2906 2906 2906 2906 2906 2905 2905 2905 2905 2904 2904 2903 2903 2902 2901 2900 2899 2899 2899 2900 2901 2902 2903
2890 2891 2892 2890 2891 2893 2893 2894 2896 2897 2898 2899 2900 2901 2901 2901 2901 2901 2901 2902 2901 2902 2902 2902 2903 2902 2902 2902 2902 2902 2902 2901 2901 2901 2900 2900 2900 2899 2899 2899 2899 2898 2897 2897 2897 2897 2896 2896 2895 2896 2896 2897 2898 2899
2885 2886 2888 2887 2888 2890 2890 2890 2891 2892 2894 2895 2896 2897 2897 2897 2898 2897 2897 2897 2898 2898 2898 2898 2898 2898 2897 2897 2898 2898 2898 2898 2898 2897 2897 2897 2896 2895 2894 2893 2893 2892 2891 2891 2891 2891 2891 2891 2891 2891 2892 2892 2893 2895
2882 2882 2883 2883 2885 2886 2887 2887 2888 2889 2889 2890 2891 2892 2893 2893 2892 2893 2892 2892 2893 2893 2894 2894 2895 2895 2896 2896 2896 2896 2896 2896 2895 2895 2894 2893 2892 2891 2890 2889 2888 2887 2887 2886 2886 2886 2886 2886 2886 2887 2887 2888 2889 2890
2877 2878 2879 2879 2880 2881 2882 2882 2883 2884 2885 2885 2886 2886 2887 2887 2888 2887 2887 2886 2887 2889 2890 2891 2891 2892 2892 2892 2893 2892 2892 2891 2891 2889 2889 2888 2887 2886 2886 2885 2884 2883 2883 2882 2881 2880 2880 2881 2881 2882 2882 2883 2884 2885
2874 2874 2875 2875 2876 2877 2878 2879 2879 2880 2880 2880 2880 2881 2881 2881 2882 2883 2883 2883 2883 2884 2885 2886 2887 2888 2888 2888 2888 2887 2886 2885 2885 2884 2883 2882 2882 2882 2881 2880 2880 2879 2878 2878 2877 2876 2876 2875 2875 2876 2877 2878 2879 2880
2871 2870 2871 2871 2872 2873 2871 2871 2872 2873 2874 2875 2876 2877 2876 2876 2875 2877 2877 2878 2879 2880 2881 2882 2883 2883 2883 2883 2882 2881 2880 2880 2879 2879 2878 2877 2877 2876 2876 2875 2875 2874 2874 2873 2872 2872 2871 2871 2871 2871 2872 2873 2874 2875
2867 2867 2867 2865 2865 2865 2866 2866 2867 2867 2869 2870 2871 2872 2872 2872 2871 2871 2872 2874 2874 2875 2877 2878 2878 2879 2879 2878 2878 2878 2877 2876 2875 2874 2873 2873 2872 2871 2870 2869 2868 2868 2868 2868 2867 2867 2867 2866 2866 2867 2867 2868 2869 2870
2864 2864 2863 2862 2861 2861 2861 2861 2862 2863 2864 2865 2866 2867 2868 2867 2866 2867 2868 2870 2871 2872 2873 2874 2875 2875 2876 2875 2875 2874 2873 2872 2871 2870 2869 2868 2867 2866 2865 2864 2863 2863 2862 2862 2862 2862 2862 2862 2862 2862 2863 2863 2864 2864
2861 2861 2860 2859 2858 2858 2858 2858 2858 2859 2859 2860 2860 2861 2860 2859 2859 2861 2862 2864 2866 2868 2869 2871 2871 2872 2872 2872 2871 2871 2870 2869 2868 2867 2866 2865 2864 2862 2861 2860 2859 2858 2857 2857 2856 2856 2856 2857 2857 2858 2858 2858 2859 2859